Regional Weather Roundup
Issued by NWS

Home | Current Version | Previous Version | Text Only | Print | Product List | Glossary On
Versions: 1 2 3 4 5 6 7 8 9 10 11 12 13 14 15 16 17 18 19 20 21 22 23 24 25 26 27 28 29 30 31 32 33 34 35 36 37 38 39 40 41 42 43 44 45 46 47 48 49 50
000
ASUS45 KBOI 010410
RWRID

IDAHO REGIONAL WEATHER ROUNDUP
NATIONAL WEATHER SERVICE BOISE ID
1000 PM MDT MON AUG 31 2015

NOTE: "FAIR" INDICATES FEW OR NO CLOUDS BELOW 12000 FEET
WITH NO SIGNIFICANT WEATHER AND/OR OBSTRUCTIONS TO VISIBILITY

IDZ012-014-010500-
SOUTHWEST IDAHO


CITY           SKY/WX    TMP DP  RH WIND       PRES   REMARKS
BOISE          CLEAR     72  44  36 CALM      29.90R
CALDWELL         N/A     68  41  37 NW3       29.90R
MOUNTAIN HOME  CLEAR     72  37  27 NW6       29.90R
$$

IDZ016-017-010500-
SOUTHCENTRAL IDAHO


CITY           SKY/WX    TMP DP  RH WIND       PRES   REMARKS
BURLEY         CLEAR     58  45  62 S6        29.97R
JEROME         PTCLDY    63  41  44 E3        29.97R
TWIN FALLS     CLEAR     66  29  24 S12       29.98R
$$

IDZ019>023-010500-
SOUTHEAST IDAHO


CITY           SKY/WX    TMP DP  RH WIND       PRES   REMARKS
IDAHO FALLS    CLEAR     63  34  33 SW5       30.01R
POCATELLO      CLEAR     62  35  36 CALM      30.01R
REXBURG        CLEAR     65  28  24 S9        30.00R
$$

IDZ006-010-011-018-031-032-010500-
CENTRAL IDAHO MOUNTAINS


CITY           SKY/WX    TMP DP  RH WIND       PRES   REMARKS
MCCALL         CLEAR     55  36  48 E5        30.02R
HAILEY         PTCLDY    59  36  41 NW8       30.05R
STANLEY          N/A     53  32  44 SE5       30.11R
SALMON         CLEAR     63  37  39 N5        29.89R
CHALLIS        CLEAR     70  32  24 W8        29.97R
$$

IDZ002-004-006-007-026-010500-
NORTHERN IDAHO


CITY           SKY/WX    TMP DP  RH WIND       PRES   REMARKS
LEWISTON       PTCLDY    71  44  37 CALM      29.87R
LOWELL           N/A     58  54  86 CALM      29.91R
COEUR D`ALENE  MOCLDY    63  45  51 S8        29.88S
MULLAN PASS    PTCLDY    49  39  68 SW9       30.01S
$$



USA.gov is the U.S. government's official web portal to all federal, state and local government web resources and services.